カタログに戻る

STARLINK-36494

運用中通信VLEO
NORAD 67331·PAYLOAD·🇺🇸 United States

打ち上げ Jan 4, 2026 から Cape Canaveral Space Force Station

Loading…

次のパス (今後24時間)

TLE

最新Source: CelesTrak SupGP

元期: Sep 15, 2026, 04:00 UTC

1 67331C 26002AC  26258.16715278  .00043698  00000+0  15821-2 0  2586
2 67331  43.0035 335.2274 0001731 268.0372 200.6629 15.27569377    11

AllMySatでSTARLINK-36494をリアルタイム追跡

Download on the App Store